Wind_Speed
9 9 9 9 9 9 8 9 9 8 8 8 8 8 8 8 8 8 8 8 7 7 7 8 8 7 8 9 9 9 9 10 9 10 10 10 10 10 10 10 9 9 9
10 10 11 11 11 11 10 10 9 8 8 8 9 9 9 8 8 8 8 9 9 9 8 8 8 9 9 9 10 10 10 11 11 11 11 11 11 11 11 10 10 10 10
11 11 11 11 12 11 11 11 10 10 9 9 8 9 8 8 8 8 8 9 9 9 9 8 9 10 10 10 10 11 11 11 12 12 12 12 13 12 12 12 11 11 11
12 12 12 12 12 12 12 12 12 11 11 11 10 10 9 8 9 9 9 9 9 9 9 10 10 10 10 11 10 10 11 12 13 14 13 13 13 13 13 13 13 13 13
13 12 12 12 12 13 12 12 12 12 12 11 11 11 11 11 10 11 11 10 10 10 10 10 10 11 10 11 11 11 11 13 13 13 13 13 14 14 14 14 14 14 14
12 12 12 12 12 13 13 13 13 13 13 13 13 13 13 12 11 12 12 12 11 11 11 11 11 11 11 11 12 12 12 13 14 14 14 14 14 15 15 14 15 15 15
13 13 12 12 12 13 13 14 14 14 14 14 14 14 13 14 14 14 13 13 12 12 12 12 12 12 13 14 14 14 14 14 14 15 15 15 16 16 16 17 16 17 17
14 14 13 14 14 13 14 14 14 15 15 16 16 15 15 15 15 15 15 15 15 14 14 14 14 14 15 15 15 15 15 15 16 17 17 17 18 17 18 18 19 19 19
15 15 15 16 15 15 15 15 15 15 16 16 17 17 16 16 16 16 17 17 17 16 15 15 15 15 16 16 16 16 17 17 17 18 18 18 19 19 19 19 19 20 20
15 15 16 17 17 16 16 17 17 18 18 17 18 19 18 18 17 17 18 18 17 17 17 17 17 17 17 17 17 17 17 17 18 18 18 18 19 20 19 19 20 20 21
16 16 17 17 17 18 17 18 19 19 19 18 18 19 19 19 20 19 19 19 18 19 20 19 19 19 18 18 18 18 18 18 18 18 18 19 19 20 20 20 21 21 21
17 18 17 18 18 18 18 19 19 19 19 19 19 20 20 20 20 21 21 20 20 20 20 20 20 20 20 20 19 19 19 19 19 19 19 20 21 21 21 21 21 21 21
19 19 19 19 18 18 18 19 19 20 19 20 20 20 21 21 21 21 21 21 21 21 21 21 21 21 21 21 21 21 20 20 20 21 20 20 21 22 22 22 22 21 21
21 21 21 21 20 19 19 19 20 20 20 20 21 21 21 22 22 22 22 22 22 21 21 21 21 21 22 22 22 22 21 21 21 21 21 20 21 21 22 21 21 21 22
22 22 22 22 21 21 20 21 21 21 21 21 22 22 22 22 23 23 24 24 23 23 22 22 22 22 22 22 22 22 22 22 22 21 22 21 21 21 21 20 20 20 21
23 23 23 22 21 21 21 21 21 21 22 22 22 23 23 24 24 24 24 24 24 24 24 24 24 24 24 23 23 23 23 23 23 23 23 23 23 22 22 22 22 22 22
23 23 22 22 22 21 21 22 22 21 21 22 23 23 24 24 24 25 25 26 25 25 25 25 25 24 24 24 24 24 25 24 24 25 24 24 24 23 23 23 22 22 23
23 23 22 22 22 22 22 22 22 22 22 22 23 24 24 25 25 25 26 26 26 26 26 26 26 25 25 25 25 26 25 25 25 26 26 25 25 24 24 24 24 23 23
24 23 24 23 23 23 22 22 21 21 22 23 23 24 24 25 25 25 26 26 27 27 27 27 26 26 26 26 26 27 27 26 26 27 27 27 26 25 25 25 24 24 24
24 25 25 24 24 24 23 22 22 22 23 23 24 24 25 25 25 26 26 27 27 27 27 27 27 27 27 27 27 28 28 28 28 28 28 27 27 26 25 25 25 25 25
24 24 24 24 24 23 23 23 23 23 23 24 24 25 25 25 25 26 27 27 27 27 27 26 26 27 27 28 28 28 28 29 29 29 28 27 27 27 26 26 27 26 26
24 25 25 25 24 24 24 24 24 23 23 23 24 24 25 26 25 26 26 27 27 28 27 27 27 28 28 28 28 28 28 29 28 28 28 28 28 28 28 28 28 27 27
25 25 26 26 25 25 25 25 24 24 24 24 24 23 24 25 25 25 25 26 27 27 28 28 28 28 29 29 29 29 29 29 28 28 28 28 29 29 29 29 29 29 28
26 26 26 26 26 26 26 26 26 26 25 25 24 24 24 24 25 25 25 25 26 26 27 28 28 29 29 30 30 30 30 29 29 29 29 29 29 29 29 29 28 28 28
26 26 26 26 26 26 26 26 26 26 26 25 24 24 24 24 24 25 25 26 26 26 26 27 28 29 30 30 30 30 30 30 29 29 30 30 30 29 29 29 29 29 29
27 27 27 27 26 26 26 26 26 25 25 24 24 24 24 25 25 26 26 26 26 26 26 27 27 28 29 30 30 30 30 30 30 29 29 30 29 29 28 28 28 28 28
Wind_Direction
285 285 287 285 286 286 277 276 274 273 273 269 267 261 261 261 265 265 262 262 262 260 260 253 250 252 251 251 251 250 247 243 248 249 253 256 259 262 262 264 270 272 276
283 282 281 281 281 282 280 277 273 275 275 271 270 267 261 261 266 266 263 261 261 257 258 253 255 254 258 258 256 257 252 248 252 257 259 261 262 263 264 264 267 270 272
285 285 284 282 282 279 276 276 273 268 270 273 274 268 262 262 269 267 262 259 256 253 252 254 255 254 256 257 260 257 256 254 256 259 262 263 265 264 263 264 267 269 269
288 285 282 283 283 281 276 271 268 267 268 270 271 267 263 263 270 270 263 259 259 258 257 258 255 255 258 260 262 260 260 259 260 261 265 266 263 261 263 266 267 266 266
290 287 283 283 281 277 275 272 269 266 266 268 267 265 266 266 270 268 269 267 268 263 263 260 257 258 260 262 260 259 262 263 263 265 267 267 264 263 267 272 269 265 265
294 290 287 284 279 275 274 270 269 269 267 268 268 270 271 271 270 265 264 268 271 267 267 262 256 258 263 265 264 264 265 265 264 269 271 271 267 264 265 265 266 266 267
298 295 291 288 282 276 276 269 267 270 268 269 269 272 274 270 272 267 265 266 268 269 268 264 261 260 262 265 266 266 265 266 266 267 271 271 270 269 266 264 264 265 268
296 295 293 290 289 280 277 271 269 271 270 269 268 270 270 267 267 267 266 265 267 268 269 268 269 271 268 267 269 268 266 266 268 268 270 268 268 268 269 268 266 267 266
293 292 291 289 288 283 278 273 271 273 273 271 267 267 269 267 264 265 267 267 267 268 268 270 272 274 272 273 272 270 270 268 270 270 270 269 271 272 272 273 273 271 269
294 293 290 287 285 283 280 273 269 270 270 271 269 266 266 269 267 267 267 268 267 268 269 271 271 272 273 277 277 275 276 276 276 274 272 273 273 273 275 274 276 275 271
293 294 293 290 285 284 282 278 272 271 270 269 267 266 266 269 268 268 269 268 267 267 269 270 272 273 273 273 276 276 276 277 278 276 272 273 274 275 274 275 277 276 272
291 293 292 291 287 285 282 280 276 273 271 269 266 266 268 269 269 270 269 271 271 270 270 269 271 273 274 273 274 276 277 277 277 276 276 276 274 274 275 273 276 274 271
291 291 291 290 289 286 282 279 277 271 270 269 267 266 268 269 269 270 269 271 271 273 274 272 271 276 277 276 275 275 274 275 276 276 276 277 276 275 275 273 272 271 270
290 289 289 287 286 286 283 281 278 272 269 269 268 267 269 269 269 269 269 269 272 273 276 277 274 276 276 275 275 276 274 273 273 274 274 276 278 275 275 272 269 269 269
289 289 288 287 285 284 283 281 279 275 271 269 270 270 270 269 269 270 270 270 272 273 275 277 276 275 276 275 275 274 274 273 271 272 274 276 279 277 274 275 272 271 271
289 290 289 286 284 284 283 282 279 276 272 271 270 270 270 270 269 269 268 269 272 274 274 276 277 275 273 273 273 274 274 272 270 271 271 273 276 276 274 273 272 272 271
287 290 289 285 284 284 283 283 279 277 274 271 270 271 271 270 269 269 269 269 271 273 273 274 276 276 274 273 273 274 273 272 272 272 271 271 274 275 275 275 273 272 271
285 288 288 287 287 285 284 284 281 278 276 274 274 273 273 272 270 269 269 270 271 272 273 274 274 275 276 275 274 273 272 271 271 272 272 272 273 273 273 273 274 272 272
283 287 289 287 288 286 285 284 282 279 277 276 275 273 273 272 270 269 269 270 271 272 272 273 273 274 275 275 274 273 271 271 272 272 271 272 273 272 272 273 272 272 273
282 285 287 287 287 286 284 283 281 280 279 277 275 275 274 273 272 271 270 271 271 271 272 272 273 274 274 274 274 271 270 271 271 271 270 271 271 272 273 273 273 273 273
281 284 283 284 286 285 284 286 285 280 279 278 276 274 274 274 274 274 272 271 271 271 272 273 274 274 275 274 275 273 271 270 271 271 271 269 270 272 272 272 272 271 271
280 283 283 282 284 287 285 285 284 282 279 279 277 276 274 274 274 275 273 272 272 272 272 274 275 275 275 275 275 274 273 270 271 270 270 270 271 271 272 272 273 271 271
280 282 284 282 282 285 285 285 283 281 279 279 278 278 277 278 276 275 275 274 273 272 272 273 274 275 275 276 275 274 273 273 272 270 269 271 271 272 272 274 272 272 272
279 281 282 283 283 282 282 281 281 280 279 279 279 279 279 279 278 276 276 275 274 273 272 274 274 274 274 274 275 274 273 272 271 271 271 273 274 275 273 272 271 270 269
277 280 280 280 281 281 280 280 280 280 279 278 279 279 279 278 278 276 276 276 275 274 274 275 275 275 275 274 275 273 272 271 271 271 273 274 275 274 272 271 270 271 270
276 277 279 280 280 280 281 281 281 280 280 280 280 280 280 279 278 278 278 278 276 275 275 275 277 277 276 275 274 274 273 271 271 271 274 275 274 273 273 272 271 270 270
Height
5872 5872 5872 5872 5872 5872 5872 5872 5872 5873 5873 5873 5873 5874 5875 5876 5876 5877 5878 5878 5879 5880 5881 5882 5882 5883 5885 5886 5887 5888 5889 5890 5891 5892 5893 5893 5894 5894 5894 5895 5895 5896 5896
5871 5871 5871 5871 5870 5870 5870 5871 5871 5871 5871 5872 5872 5873 5874 5875 5875 5875 5876 5877 5877 5878 5879 5880 5881 5882 5883 5884 5885 5886 5887 5888 5889 5890 5890 5891 5892 5892 5892 5893 5893 5893 5894
5869 5869 5869 5869 5869 5868 5868 5869 5869 5869 5870 5870 5871 5872 5872 5873 5873 5874 5874 5875 5875 5876 5877 5878 5879 5880 5881 5882 5882 5883 5884 5885 5886 5887 5888 5889 5889 5889 5890 5890 5890 5891 5891
5867 5867 5867 5867 5866 5866 5866 5866 5867 5868 5868 5869 5869 5870 5870 5871 5872 5872 5873 5873 5874 5874 5875 5876 5877 5878 5879 5879 5880 5881 5882 5883 5884 5884 5885 5886 5886 5886 5887 5887 5887 5888 5888
5865 5864 5864 5864 5864 5864 5864 5864 5865 5865 5866 5866 5867 5867 5868 5869 5869 5870 5871 5871 5872 5873 5873 5874 5875 5875 5876 5877 5878 5878 5879 5880 5881 5882 5882 5882 5883 5883 5883 5884 5884 5885 5885
5862 5862 5861 5861 5861 5861 5862 5862 5862 5863 5863 5864 5864 5864 5865 5866 5867 5867 5868 5869 5869 5870 5871 5871 5872 5873 5874 5874 5875 5876 5876 5877 5878 5878 5879 5879 5879 5879 5880 5880 5881 5881 5881
5860 5859 5859 5859 5858 5858 5858 5859 5859 5860 5860 5861 5862 5862 5862 5863 5863 5864 5865 5865 5867 5867 5868 5869 5869 5870 5871 5871 5872 5872 5873 5873 5874 5874 5875 5875 5875 5876 5876 5876 5877 5877 5877
5858 5857 5856 5856 5855 5854 5855 5855 5856 5856 5857 5858 5859 5859 5859 5860 5860 5861 5861 5862 5863 5864 5865 5865 5866 5866 5867 5867 5868 5868 5869 5869 5870 5870 5871 5871 5871 5871 5872 5872 5872 5873 5873
5855 5854 5853 5853 5852 5852 5852 5852 5853 5853 5853 5854 5854 5855 5856 5856 5857 5858 5858 5859 5859 5860 5861 5861 5862 5863 5863 5864 5864 5864 5865 5865 5865 5866 5866 5866 5866 5867 5867 5867 5867 5868 5868
5852 5851 5851 5850 5849 5849 5848 5848 5849 5849 5850 5850 5850 5851 5852 5852 5852 5853 5854 5854 5855 5855 5856 5857 5858 5859 5859 5860 5860 5860 5860 5861 5861 5861 5861 5861 5861 5861 5861 5861 5862 5862 5862
5849 5848 5847 5846 5846 5845 5845 5845 5845 5845 5845 5846 5846 5847 5847 5848 5848 5849 5849 5850 5850 5851 5852 5852 5853 5854 5854 5855 5855 5855 5856 5856 5856 5856 5856 5856 5856 5855 5856 5856 5856 5856 5856
5845 5844 5844 5843 5842 5842 5841 5841 5841 5841 5841 5841 5842 5842 5843 5843 5843 5844 5845 5845 5846 5846 5846 5847 5848 5848 5849 5849 5850 5850 5850 5850 5851 5851 5850 5850 5850 5850 5850 5850 5850 5850 5850
5841 5840 5839 5839 5838 5837 5837 5836 5836 5836 5836 5836 5837 5837 5838 5838 5838 5839 5840 5840 5841 5841 5841 5842 5842 5842 5843 5844 5844 5845 5845 5845 5845 5845 5845 5845 5845 5844 5844 5844 5844 5844 5844
5836 5836 5835 5834 5833 5833 5832 5831 5831 5831 5831 5832 5832 5832 5832 5833 5833 5833 5834 5835 5835 5836 5836 5836 5837 5837 5837 5838 5838 5839 5839 5839 5839 5840 5840 5839 5839 5838 5838 5838 5837 5838 5838
5831 5831 5830 5829 5828 5828 5827 5826 5826 5826 5826 5826 5826 5826 5826 5827 5827 5827 5828 5828 5829 5830 5831 5831 5831 5831 5831 5832 5832 5833 5833 5833 5833 5834 5834 5833 5833 5832 5832 5832 5832 5831 5832
5826 5825 5824 5823 5823 5822 5821 5821 5820 5820 5820 5820 5820 5820 5820 5821 5821 5821 5822 5822 5823 5823 5824 5824 5825 5825 5825 5825 5826 5826 5826 5827 5827 5827 5827 5827 5827 5826 5826 5825 5825 5825 5826
5820 5819 5818 5818 5817 5816 5816 5815 5815 5814 5814 5814 5814 5814 5814 5814 5814 5815 5815 5816 5816 5817 5817 5818 5818 5818 5819 5819 5819 5819 5819 5820 5820 5820 5820 5820 5820 5820 5819 5819 5819 5819 5819
5815 5814 5813 5812 5812 5811 5810 5809 5808 5808 5808 5807 5807 5807 5807 5807 5807 5808 5808 5809 5809 5810 5811 5811 5811 5811 5812 5812 5812 5812 5812 5813 5813 5813 5813 5813 5813 5813 5813 5812 5812 5812 5812
5809 5808 5808 5807 5806 5805 5804 5803 5802 5802 5801 5801 5800 5800 5800 5800 5801 5801 5801 5801 5802 5803 5803 5804 5804 5804 5804 5805 5805 5805 5805 5805 5805 5805 5805 5806 5806 5806 5806 5806 5805 5805 5805
5803 5803 5802 5801 5800 5799 5798 5797 5797 5796 5795 5794 5794 5793 5793 5793 5793 5794 5794 5794 5794 5795 5795 5796 5796 5797 5797 5797 5797 5797 5797 5797 5797 5797 5797 5798 5798 5798 5798 5798 5798 5798 5798
5797 5797 5796 5795 5794 5793 5792 5791 5790 5789 5789 5788 5787 5786 5786 5786 5786 5786 5786 5787 5787 5787 5788 5788 5789 5789 5789 5788 5788 5788 5788 5789 5789 5789 5789 5790 5790 5790 5790 5790 5790 5791 5791
5791 5790 5790 5789 5788 5787 5786 5785 5784 5783 5782 5781 5781 5780 5779 5779 5779 5779 5778 5779 5779 5779 5780 5780 5780 5780 5780 5780 5780 5780 5780 5781 5781 5782 5781 5782 5782 5782 5782 5782 5782 5782 5783
5784 5784 5783 5782 5781 5780 5779 5778 5777 5776 5776 5775 5774 5773 5772 5771 5771 5771 5771 5771 5771 5771 5772 5772 5772 5772 5772 5772 5772 5772 5772 5772 5772 5772 5773 5773 5773 5774 5774 5774 5774 5774 5774
5777 5777 5776 5775 5774 5773 5773 5772 5771 5770 5769 5768 5767 5766 5766 5765 5764 5764 5764 5764 5764 5764 5764 5764 5764 5764 5763 5763 5763 5763 5763 5763 5764 5763 5763 5764 5764 5765 5765 5765 5765 5765 5765
5770 5770 5769 5768 5767 5766 5765 5764 5764 5763 5762 5761 5761 5760 5759 5758 5758 5757 5757 5757 5756 5756 5756 5755 5755 5755 5754 5754 5754 5754 5754 5755 5755 5755 5754 5755 5755 5755 5755 5755 5755 5756 5756
5763 5762 5762 5760 5759 5759 5758 5758 5757 5757 5756 5755 5755 5754 5753 5752 5751 5750 5750 5749 5749 5748 5748 5747 5747 5746 5746 5745 5745 5745 5745 5745 5746 5746 5746 5745 5745 5746 5746 5746 5746 5747 5747